Location: Aufkirchen
(47.9603°N, 11.3653°E)
Time: 07:47:22
(UTC+01:00)

Transit 2A - Pass Details

Date: 27 November 2020
Orbit: 599 x 960 km, 66.7° (Epoch: 25 January)

Event Time Altitude Azimuth Distance (km) Brightness Sun altitude
Rises 21:01:14 0° 281° (W) 3,584 10.2 -45.1°
Reaches altitude 10° 21:05:02 10° 303° (WNW) 2,590 9.3 -45.7°
Enters shadow 21:06:16 13° 314° (NW) 2,364 9.0 -45.9°
Maximum altitude 21:08:28 15° 338° (NNW) 2,169 - -46.3°
Drops below altitude 10° 21:11:47 10° 14° (NNE) 2,466 - -46.8°
Sets 21:15:16 0° 37° (NE) 3,322 - -47.3°
